• In Netherlands
  • List of Countries
  • For 7 days
  • Water Temperature
  • Satellite Maps
  • Weather Map
  • Weather Widgets
  • user-avatar
    Login

    Hourly Weather Reno

    Today, 19 October, Friday

    Time Temperature Precipitation Wind Pressure Humidity
    00:00 +11°C° 0 mm 1 mps 648 mmHg 37%
    01:00 +11°C° 0 mm 1 mps 648 mmHg 38%
    02:00 +10°C° 0 mm 1 mps 648 mmHg 39%
    03:00 +10°C° 0 mm 1 mps 648 mmHg 40%
    04:00 +10°C° 0 mm 1 mps 648 mmHg 41%
    05:00 +10°C° 0 mm 1 mps 648 mmHg 41%
    06:00 +10°C° 0 mm 1 mps 649 mmHg 41%
    07:00 +10°C° 0 mm 1 mps 649 mmHg 41%
    08:00 +13°C° 0 mm 1 mps 650 mmHg 36%
    09:00 +15°C° 0 mm 1 mps 650 mmHg 30%
    10:00 +18°C° 0 mm 2 mps 651 mmHg 25%
    11:00 +19°C° 0 mm 2 mps 651 mmHg 23%
    12:00 +20°C° 0 mm 2 mps 651 mmHg 22%
    13:00 +21°C° 0 mm 3 mps 651 mmHg 20%
    14:00 +20°C° 0 mm 3 mps 650 mmHg 21%
    15:00 +20°C° 0 mm 3 mps 650 mmHg 21%
    16:00 +20°C° 0 mm 3 mps 650 mmHg 22%
    17:00 +18°C° 0 mm 2 mps 649 mmHg 25%
    18:00 +16°C° 0 mm 2 mps 649 mmHg 29%
    19:00 +14°C° 0 mm 1 mps 648 mmHg 33%
    20:00 +13°C° 0 mm 1 mps 648 mmHg 35%
    21:00 +13°C° 0 mm 1 mps 648 mmHg 36%
    22:00 +12°C° 0 mm 1 mps 648 mmHg 37%
    23:00 +12°C° 0 mm 1 mps 648 mmHg 38%

    Tomorrow, 20 October, Saturday

    Time Temperature Precipitation Wind Pressure Humidity
    00:00 +11°C° 0 mm 1 mps 648 mmHg 39%
    01:00 +11°C° 0 mm 1 mps 647 mmHg 40%
    02:00 +10°C° 0 mm 1 mps 647 mmHg 41%
    03:00 +10°C° 0 mm 1 mps 647 mmHg 42%
    04:00 +10°C° 0 mm 1 mps 647 mmHg 43%
    05:00 +10°C° 0 mm 1 mps 647 mmHg 43%
    06:00 +10°C° 0 mm 1 mps 647 mmHg 43%
    07:00 +10°C° 0 mm 1 mps 647 mmHg 44%
    08:00 +13°C° 0 mm 1 mps 647 mmHg 37%
    09:00 +16°C° 0 mm 1 mps 648 mmHg 31%
    10:00 +18°C° 0 mm 2 mps 648 mmHg 25%
    11:00 +19°C° 0 mm 2 mps 648 mmHg 23%
    12:00 +20°C° 0 mm 3 mps 648 mmHg 22%
    13:00 +21°C° 0 mm 3 mps 648 mmHg 20%
    14:00 +20°C° 0 mm 3 mps 647 mmHg 21%
    15:00 +20°C° 0 mm 3 mps 647 mmHg 21%
    16:00 +20°C° 0 mm 3 mps 646 mmHg 22%
    17:00 +18°C° 0 mm 2 mps 646 mmHg 25%
    18:00 +16°C° 0 mm 2 mps 646 mmHg 29%
    19:00 +14°C° 0 mm 1 mps 645 mmHg 33%
    20:00 +13°C° 0 mm 1 mps 645 mmHg 34%
    21:00 +13°C° 0 mm 1 mps 645 mmHg 35%
    22:00 +12°C° 0 mm 1 mps 645 mmHg 36%
    23:00 +12°C° 0 mm 1 mps 645 mmHg 37%

    Day after tomorrow, 21 October, Sunday

    Time Temperature Precipitation Wind Pressure Humidity
    00:00 +11°C° 0 mm 1 mps 645 mmHg 38%
    01:00 +10°C° 0 mm 0 mps 644 mmHg 39%
    02:00 +10°C° 0 mm 1 mps 644 mmHg 40%
    03:00 +10°C° 0 mm 1 mps 644 mmHg 41%
    04:00 +10°C° 0 mm 1 mps 644 mmHg 41%
    05:00 +10°C° 0 mm 1 mps 644 mmHg 41%
    06:00 +10°C° 0 mm 1 mps 644 mmHg 42%
    07:00 +10°C° 0 mm 1 mps 644 mmHg 42%
    08:00 +13°C° 0 mm 1 mps 645 mmHg 36%
    09:00 +15°C° 0 mm 0 mps 646 mmHg 30%
    10:00 +18°C° 0 mm 0 mps 646 mmHg 25%
    11:00 +18°C° 0 mm 0 mps 646 mmHg 23%
    12:00 +21°C° 0 mm 1 mps 646 mmHg 22%
    13:00 +22°C° 0 mm 1 mps 645 mmHg 21%
    14:00 +21°C° 0 mm 1 mps 645 mmHg 21%
    15:00 +21°C° 0 mm 1 mps 645 mmHg 22%
    16:00 +20°C° 0 mm 2 mps 645 mmHg 22%
    17:00 +19°C° 0 mm 1 mps 644 mmHg 27%
    18:00 +16°C° 0 mm 1 mps 644 mmHg 32%
    19:00 +13°C° 0 mm 1 mps 644 mmHg 37%
    20:00 +13°C° 0 mm 1 mps 644 mmHg 37%
    21:00 +12°C° 0 mm 1 mps 644 mmHg 37%
    22:00 +12°C° 0 mm 1 mps 644 mmHg 38%
    23:00 +11°C° 0 mm 1 mps 644 mmHg 37%

    22 October, Monday

    Time Temperature Precipitation Wind Pressure Humidity
    00:00 +11°C° 0 mm 1 mps 643 mmHg 36%
    01:00 +11°C° 0 mm 1 mps 643 mmHg 35%
    02:00 +10°C° 0 mm 1 mps 643 mmHg 35%
    03:00 +10°C° 0 mm 1 mps 643 mmHg 35%
    04:00 +10°C° 0 mm 1 mps 643 mmHg 35%
    05:00 +10°C° 0 mm 1 mps 643 mmHg 35%
    06:00 +10°C° 0 mm 1 mps 643 mmHg 35%
    07:00 +10°C° 0 mm 1 mps 643 mmHg 35%
    08:00 +13°C° 0 mm 1 mps 644 mmHg 31%
    09:00 +15°C° 0 mm 1 mps 645 mmHg 27%
    10:00 +19°C° 0 mm 1 mps 646 mmHg 23%
    11:00 +20°C° 0 mm 1 mps 646 mmHg 22%
    12:00 +20°C° 0 mm 1 mps 645 mmHg 21%
    13:00 +21°C° 0 mm 1 mps 645 mmHg 20%
    14:00 +21°C° 0 mm 1 mps 645 mmHg 21%
    15:00 +19°C° 0 mm 2 mps 645 mmHg 21%
    16:00 +19°C° 0 mm 2 mps 644 mmHg 22%
    17:00 +18°C° 0 mm 1 mps 644 mmHg 27%
    18:00 +15°C° 0 mm 1 mps 644 mmHg 32%
    19:00 +12°C° 0 mm 0 mps 644 mmHg 37%
    20:00 +13°C° 0 mm 1 mps 644 mmHg 38%
    21:00 +12°C° 0 mm 1 mps 644 mmHg 39%
    22:00 +12°C° 0 mm 1 mps 644 mmHg 39%
    23:00 +11°C° 0 mm 1 mps 644 mmHg 40%

    23 October, Tuesday

    Time Temperature Precipitation Wind Pressure Humidity
    00:00 +11°C° 0 mm 1 mps 644 mmHg 41%
    01:00 +10°C° 0 mm 1 mps 643 mmHg 41%
    02:00 +10°C° 0 mm 1 mps 643 mmHg 42%
    03:00 +10°C° 0 mm 1 mps 643 mmHg 43%
    04:00 +9°C° 0 mm 1 mps 643 mmHg 43%
    05:00 +10°C° 0 mm 1 mps 644 mmHg 44%
    06:00 +10°C° 0 mm 1 mps 644 mmHg 44%
    07:00 +10°C° 0 mm 1 mps 644 mmHg 44%
    08:00 +13°C° 0 mm 1 mps 645 mmHg 38%
    09:00 +15°C° 0 mm 1 mps 646 mmHg 31%
    10:00 +17°C° 0 mm 0 mps 646 mmHg 25%
    11:00 +18°C° 0 mm 0 mps 646 mmHg 24%
    12:00 +18°C° 0 mm 0 mps 646 mmHg 22%
    13:00 +21°C° 0 mm 1 mps 646 mmHg 20%
    14:00 +21°C° 0 mm 1 mps 646 mmHg 21%
    15:00 +20°C° 0 mm 1 mps 645 mmHg 22%
    16:00 +20°C° 0 mm 1 mps 645 mmHg 22%
    17:00 +18°C° 0 mm 1 mps 645 mmHg 27%
    18:00 +15°C° 0 mm 1 mps 645 mmHg 31%
    19:00 +14°C° 0 mm 1 mps 645 mmHg 35%
    20:00 +13°C° 0 mm 1 mps 645 mmHg 36%
    21:00 +13°C° 0 mm 1 mps 645 mmHg 36%
    22:00 +12°C° 0 mm 1 mps 645 mmHg 36%
    23:00 +12°C° 0 mm 1 mps 645 mmHg 36%

    24 October, Wednesday

    Time Temperature Precipitation Wind Pressure Humidity
    00:00 +12°C° 0 mm 1 mps 644 mmHg 37%
    01:00 +11°C° 0 mm 1 mps 644 mmHg 37%
    02:00 +11°C° 0 mm 1 mps 644 mmHg 37%
    03:00 +10°C° 0 mm 1 mps 644 mmHg 38%
    04:00 +10°C° 0 mm 1 mps 644 mmHg 39%
    05:00 +10°C° 0 mm 1 mps 644 mmHg 39%
    06:00 +10°C° 0 mm 1 mps 644 mmHg 38%
    07:00 +10°C° 0 mm 1 mps 644 mmHg 38%
    08:00 +13°C° 0 mm 1 mps 645 mmHg 33%
    09:00 +15°C° 0 mm 1 mps 646 mmHg 27%
    10:00 +19°C° 0 mm 1 mps 646 mmHg 22%
    11:00 +20°C° 0 mm 1 mps 646 mmHg 20%
    12:00 +21°C° 0 mm 1 mps 646 mmHg 19%
    13:00 +21°C° 0 mm 2 mps 646 mmHg 17%
    14:00 +20°C° 0 mm 2 mps 646 mmHg 18%
    15:00 +20°C° 0 mm 2 mps 646 mmHg 19%
    16:00 +19°C° 0 mm 2 mps 646 mmHg 20%
    17:00 +17°C° 0 mm 2 mps 646 mmHg 25%
    18:00 +16°C° 0 mm 2 mps 646 mmHg 30%
    19:00 +14°C° 0 mm 2 mps 646 mmHg 35%
    20:00 +14°C° 0 mm 2 mps 646 mmHg 36%
    21:00 +13°C° 0 mm 2 mps 646 mmHg 36%
    22:00 +13°C° 0 mm 2 mps 647 mmHg 36%
    23:00 +12°C° 0 mm 2 mps 646 mmHg 36%
    Show more